Location: Star Hoppers Observatory
(42.7905°N, 83.6127°W)
Time: 09:27:49
(UTC-04:00)

NOSS 3-1 (A) - Visible Passes

Search period start: 16 August 2017 00:00
Search period end: 26 August 2017 00:00
Orbit: 826 x 1387 km, 63.4° (Epoch: 13 August)

Date Brightness Start Highest point End Pass type
(mag) Time Alt. Az. Time Alt. Az. Time Alt. Az.
16 Aug 6.5 01:14:04 10° NW 01:17:16 14° N 01:20:40 10° NNE visible
16 Aug 6.4 03:06:42 10° NNW 03:11:27 18° NNE 03:16:33 10° ENE visible
16 Aug 5.1 04:57:08 10° NNW 05:04:18 48° NE 05:12:16 10° ESE visible
16 Aug 4.9 22:33:04 10° WSW 22:38:33 38° NW 22:44:44 10° NNE visible
17 Aug 6.4 00:28:00 10° NW 00:31:39 15° NNW 00:35:33 10° NNE visible
17 Aug 6.5 02:21:56 10° NNW 02:25:52 15° NNE 02:30:04 10° NE visible
17 Aug 5.6 04:12:32 10° NNW 04:19:13 35° NE 04:26:34 10° ESE visible
17 Aug 4.1 06:03:11 10° NW 06:10:48 72° WSW 06:19:12 10° SSE visible
17 Aug 4.2 21:47:51 10° SW 21:53:35 57° NW 22:00:03 10° NNE visible
17 Aug 6.2 23:41:54 10° WNW 23:46:08 18° NNW 23:50:43 10° NNE visible
18 Aug 6.6 01:36:53 10° NNW 01:40:14 14° N 01:43:44 10° NE visible
18 Aug 5.9 03:27:57 10° NNW 03:33:59 27° NNE 03:40:33 10° E visible
18 Aug 4.2 05:18:25 10° NW 05:26:02 81° NE 05:34:29 10° SE visible
18 Aug 3.5 21:03:00 10° SW 21:08:47 87° NW 21:15:19 10° NE visible
18 Aug 5.8 22:55:56 10° W 23:00:44 23° NNW 23:06:02 10° NNE visible
19 Aug 6.5 00:51:26 10° NNW 00:54:32 13° N 00:57:49 10° NNE visible
19 Aug 6.2 02:43:21 10° NNW 02:48:36 21° NNE 02:54:17 10° ENE visible
19 Aug 4.7 04:33:45 10° NNW 04:41:10 58° NE 04:49:23 10° SE visible
19 Aug 5.4 22:10:13 10° W 22:15:29 31° NW 22:21:23 10° NNE visible
20 Aug 6.5 00:05:33 10° NW 00:08:53 14° N 00:12:26 10° NNE visible
20 Aug 6.4 01:58:40 10° NNW 02:03:06 17° NNE 02:07:50 10° ENE visible
20 Aug 5.2 03:49:08 10° NNW 03:56:09 42° NE 04:03:54 10° ESE visible
20 Aug 4.2 05:39:57 10° NW 05:47:28 57° WSW 05:55:40 10° SSE visible
20 Aug 4.7 21:24:48 10° WSW 21:30:24 44° NW 21:36:44 10° NNE visible
20 Aug 6.3 23:19:26 10° NW 23:23:18 16° NNW 23:27:26 10° NNE visible
21 Aug 6.5 01:13:49 10° NNW 01:17:29 14° NNE 01:21:23 10° NE visible
21 Aug 5.6 03:04:33 10° NNW 03:11:00 31° NE 03:18:04 10° E visible
21 Aug 4.0 04:55:07 10° NW 05:02:46 82° WSW 05:11:13 10° SSE visible
21 Aug 6.1 22:33:21 10° WNW 22:37:49 20° NNW 22:42:41 10° NNE visible
22 Aug 6.5 00:28:37 10° NNW 00:31:49 13° N 00:35:11 10° NNE visible
22 Aug 5.9 02:19:58 10° NNW 02:25:43 24° NNE 02:31:57 10° E visible
22 Aug 4.3 04:10:23 10° NNW 04:17:58 72° NE 04:26:21 10° SE visible
22 Aug 4.8 06:02:03 10° NW 06:08:36 30° WSW 06:15:35 10° SSW visible
22 Aug 5.7 21:47:29 10° W 21:52:28 26° NNW 21:58:01 10° NNE visible
22 Aug 6.4 23:42:59 10° NNW 23:46:08 13° N 23:49:28 10° NNE visible
23 Aug 6.2 01:35:21 10° NNW 01:40:16 19° NNE 01:45:35 10° ENE visible
23 Aug 4.8 03:25:45 10° NNW 03:33:02 51° NE 03:41:05 10° ESE visible
23 Aug 4.3 05:16:49 10° NW 05:24:05 45° WSW 05:31:58 10° S visible
23 Aug 5.2 21:01:52 10° WSW 21:07:17 36° NW 21:13:22 10° NNE visible
23 Aug 6.3 22:56:58 10° NW 23:00:30 15° NNW 23:04:16 10° NNE visible
24 Aug 6.3 00:50:37 10° NNW 00:54:43 16° NNE 00:59:06 10° NE visible
24 Aug 5.2 02:41:09 10° NNW 02:47:57 37° NE 02:55:29 10° ESE visible
24 Aug 4.0 04:31:52 10° NW 04:39:27 66° WSW 04:47:48 10° SSE visible
24 Aug 6.2 22:10:51 10° WNW 22:14:56 17° NNW 22:19:23 10° NNE visible
25 Aug 6.4 00:05:38 10° NNW 00:09:05 14° N 00:12:43 10° NE visible
25 Aug 5.6 01:56:35 10° NNW 02:02:46 28° NE 02:09:32 10° E visible
25 Aug 4.0 03:47:04 10° NW 03:54:43 87° NE 04:03:10 10° SE visible
25 Aug 5.0 05:39:17 10° WNW 05:45:05 23° WSW 05:51:15 10° SSW visible
25 Aug 5.9 21:24:51 10° WNW 21:29:31 22° NNW 21:34:39 10° NNE visible
25 Aug 6.3 23:20:18 10° NNW 23:23:25 13° N 23:26:41 10° NNE visible
